Regional Weather Roundup
Issued by NWS Mt. Holly, NJ

Home | Current Version | Previous Version | Text Only | Print | Product List | Glossary On
Versions: 1 2 3 4 5 6 7 8 9 10 11 12 13 14 15 16 17 18 19 20 21 22 23 24 25 26 27
000
ASUS41 KPHI 260710
RWRPHI

REGIONAL WEATHER ROUNDUP
NATIONAL WEATHER SERVICE MOUNT HOLLY NJ
300 AM EDT SUN OCT 26 2014

NOTE:  "FAIR" INDICATES FEW OR NO CLOUDS BELOW 12,000 FEET WITH NO
SIGNIFICANT WEATHER AND/OR OBSTRUCTIONS TO VISIBILITY.

 * = STATION DOES NOT REPORT PRECIPITATION (E.G. RAIN, SNOW, ETC.)
        OR FOG.

NJZ015>026-260800-
SOUTHERN NEW JERSEY

CITY           SKY/WX    TMP DP  RH WIND       PRES   REMARKS
POMONA         PTCLDY    57  47  69 W8        29.61F
RIO GRANDE*    PTCLDY    61  46  59 SW10      29.63F
MILLVILLE      PTCLDY    55  47  74 W6        29.63S
WRIGHTSTOWN    CLOUDY    58  46  63 W7        29.58R
MOUNT HOLLY    CLOUDY    59  45  59 SW7       29.60S
TRENTON        MOCLDY    60  45  57 W6        29.59S

$$
NJZ001>014-260800-
NORTHERN NEW JERSEY

CITY           SKY/WX    TMP DP  RH WIND       PRES   REMARKS
SUSSEX         CLEAR     49  42  77 SW3       29.56S
ANDOVER*         N/A     46  45  96 CALM      29.57F
MORRISTOWN     PTCLDY    50  45  81 CALM      29.56F
NEWARK         PTCLDY    59  45  59 W6        29.56S
TETERBORO      PTCLDY    57  46  66 W6        29.55S
CALDWELL       PTCLDY    51  47  86 CALM      29.56F
SOMERVILLE     PTCLDY    50  45  83 CALM      29.56F
ALLAIRE*       CLOUDY    57  41  54 W7        29.58F
TOMS RIVER*    CLOUDY    57  45  62 W5        29.60R

$$
PAZ043-044-047-054-055-060>062-066>071-260800-
EASTERN PENNSYLVANIA

CITY           SKY/WX    TMP DP  RH WIND       PRES   REMARKS
PHILADELPHIA   CLOUDY    60  48  64 SW6       29.61S
NORTH PHILA    CLOUDY    63  45  51 W7        29.61S
BLUE BELL      PTCLDY    61  46  59 CALM      29.60S
DOYLESTOWN     PTCLDY    56  46  69 CALM      29.59S
QUAKERTOWN*    PTCLDY    52  45  76 W3        29.60F
POTTSTOWN      CLOUDY    58  46  64 SW3       29.62S
LANCASTER      MOCLDY    56  48  74 W8        29.63R
COATESVILLE    MOCLDY    57  48  72 W3        29.63S
READING        PTCLDY    61  42  49 NW13G20   29.61R
ALLENTOWN      PTCLDY    54  39  57 SW3       29.58F
MOUNT POCONO   PTCLDY    50  40  68 W10       29.58S
HAZLETON       PTCLDY    54  41  62 W10G17    29.64R
WILKES BARRE   MOCLDY    57  39  51 N16G28    29.61R

$$
DEZALL-MDZ008-012-015-019-020-260800-
DELAWARE AND EASTERN MARYLAND

CITY           SKY/WX    TMP DP  RH WIND       PRES   REMARKS
WILMINGTON     CLOUDY    59  47  64 SW7       29.63S
DOVER          CLEAR     56  47  73 SW10      29.61F
GEORGETOWN     CLEAR     56  46  69 SW5       29.66F
EASTON         CLEAR     59  51  75 W5        29.70S
PATUXENT       CLEAR     57  45  64 SW10      29.68F
OCEAN CITY     CLEAR     57  47  69 W8        29.66F
WALLOPS ISLAND CLEAR     59  50  72 W8        29.69F
CAMBRIDGE      CLEAR     55  48  76 SW3       29.67S
SALISBURY      CLEAR     58  49  72 SW8       29.67F

$$
PAZ001-021-NYZ056-072-MDZ011-DCZ001-260800-
OTHER NEARBY LOCATIONS

CITY           SKY/WX    TMP DP  RH WIND       PRES   REMARKS
HARRISBURG     PTCLDY    62  37  39 NW20      29.64R
STATE COLLEGE  CLEAR     54  34  46 NW20G28   29.70S
WILLIAMSPORT   PTCLDY    58  36  43 W24G33    29.63R
BINGHAMTON     PTCLDY    44  41  89 W9        29.60R
NEW YORK CITY  MOCLDY    58  47  66 W7        29.58S
BALTIMORE      PTCLDY    53  45  74 W6        29.66S
WASHINGTON DC  PTCLDY    57  45  64 S9        29.69S

$$



USA.gov is the U.S. government's official web portal to all federal, state and local government web resources and services.